Location: Aufkirchen
(47.9603°N, 11.3653°E)
Time: 11:43:40
(UTC+01:00)

Tiros 1 - Pass Details

Date: 04 December 2020
Orbit: 630 x 663 km, 48.4° (Epoch: 21 January)

Event Time Altitude Azimuth Distance (km) Brightness Sun altitude
Rises 14:56:16 0° 251° (WSW) 2,988 11.7 9.9°
Reaches altitude 10° 14:58:37 10° 250° (WSW) 2,078 11.0 9.6°
Maximum altitude 15:03:25 78° 164° (SSE) 679 7.6 9.1°
Drops below altitude 10° 15:08:13 10° 79° (E) 2,076 9.3 8.6°
Sets 15:10:34 0° 78° (ENE) 2,986 10.1 8.3°
